EW9437 Weather Reports


Display with metric or nautical units.
time (UTC)temp
F
wind
direction
speed
MPH
gust
MPH
rain 1hr
in
rain 24hr
in
rain mn
in
humidity
%
barometer
mb
20260507130018 53 352 0.0 0.0 0.00 0.00 0.00 94 1016.1
20260507124517 53 349 0.0 0.0 0.00 0.00 0.00 94 1015.8
20260507123016 53 349 0.0 0.0 0.00 0.00 0.00 93 1015.6
20260507121515 54 349 0.0 0.0 0.00 0.00 0.00 93 1015.6
20260507120013 54 349 0.0 0.0 0.00 0.00 0.00 93 1015.6
20260507114511 54 349 0.0 0.0 0.00 0.00 0.00 93 1015.8
20260507113013 54 349 0.0 0.0 0.00 0.00 0.00 93 1015.6
20260507111509 54 349 0.0 0.0 0.00 0.00 0.00 93 1016.0
20260507110007 54 349 0.0 0.0 0.00 0.00 0.00 93 1015.9
20260507104509 54 349 0.0 0.0 0.00 0.00 0.00 92 1016.0
20260507103004 54 349 0.0 0.0 0.00 0.00 0.00 92 1016.1
20260507101502 54 349 0.0 0.0 0.00 0.00 0.00 92 1016.2
20260507100100 54 349 0.0 0.0 0.00 0.00 0.00 91 1016.3
20260507094558 54 349 0.0 0.0 0.00 0.00 0.00 91 1016.4
20260507093100 54 349 0.0 0.0 0.00 0.00 0.00 91 1016.4
20260507091558 54 348 0.0 0.0 0.00 0.00 0.00 91 1016.6
20260507090051 55 348 0.0 0.0 0.00 0.00 0.00 91 1016.9
20260507084550 55 348 0.0 0.0 0.00 0.00 0.00 91 1017.0
20260507083049 55 348 0.0 0.0 0.00 0.00 0.00 90 1017.1
20260507081544 55 348 0.0 0.0 0.00 0.00 0.00 90 1017.2
20260507080045 55 348 0.0 0.0 0.00 0.00 0.00 90 1017.2
20260507074542 55 348 0.0 0.0 0.00 0.00 0.00 88 1017.2
20260507073040 55 348 0.0 0.0 0.00 0.00 0.00 89 1017.2
20260507071538 55 348 0.0 0.0 0.00 0.00 0.00 90 1017.2
20260507070036 55 348 0.0 0.0 0.00 0.00 0.00 90 1017.3
20260507064535 56 348 0.0 1.0 0.00 0.00 0.00 89 1017.5
20260507063044 56 348 0.0 2.0 0.00 0.00 0.00 89 1017.6
20260507061535 56 348 0.0 2.0 0.00 0.00 0.00 89 1017.7
20260507060047 56 347 0.0 0.0 0.00 0.00 0.00 88 1017.6
20260507054544 56 347 0.0 0.0 0.00 0.00 0.00 87 1017.4
20260507053031 56 347 0.0 0.0 0.00 0.00 0.00 87 1017.4
20260507051532 57 336 0.0 2.0 0.00 0.00 0.00 88 1017.6
20260507050031 57 336 0.0 0.0 0.00 0.00 0.00 88 1017.5
20260507044547 57 336 0.0 1.0 0.00 0.00 0.00 87 1017.6
20260507043030 57 336 0.0 2.0 0.00 0.00 0.00 86 1017.5
20260507041529 58 337 1.0 3.0 0.00 0.00 0.00 85 1017.4
20260507040033 58 337 1.0 3.0 0.00 0.00 0.00 82 1017.4
20260507034534 58 337 0.0 1.0 0.00 0.00 0.00 80 1017.3
20260507033028 59 337 0.0 1.0 0.00 0.00 0.00 80 1017.1
20260507031528 60 337 0.0 3.0 0.00 0.00 0.00 79 1016.9
20260507030028 60 331 0.0 2.0 0.00 0.00 0.00 79 1016.9
20260507024527 61 331 1.0 4.0 0.00 0.00 0.00 78 1016.8
20260507023027 62 277 1.0 4.0 0.00 0.00 0.00 77 1016.7
20260507021529 63 261 3.0 7.0 0.00 0.00 0.00 75 1016.6
20260507020037 64 272 3.0 7.0 0.00 0.00 0.00 74 1016.6
20260507014525 65 290 3.0 9.0 0.00 0.00 0.00 73 1016.5
20260507013024 66 267 3.0 7.0 0.00 0.00 0.00 71 1016.4
20260507011524 66 243 2.0 9.0 0.00 0.00 0.00 70 1016.4
20260507010028 67 231 4.0 7.0 0.00 0.00 0.00 69 1016.3
20260507004529 67 238 6.0 9.0 0.00 0.00 0.00 67 1016.3
20260507003027 67 235 4.0 10.0 0.00 0.00 0.00 66 1016.3
20260507001524 69 283 5.0 9.0 0.00 0.00 0.00 64 1016.2
20260507000018 68 309 4.0 11.0 0.00 0.00 0.00 66 1016.1
20260506234516 69 293 2.0 9.0 0.00 0.00 0.00 67 1016.0
20260506233014 69 7 4.0 10.0 0.00 0.00 0.00 67 1016.0
20260506231514 69 265 5.0 10.0 0.00 0.00 0.00 66 1016.0
20260506230010 70 314 5.0 10.0 0.00 0.00 0.00 65 1016.2
20260506224509 70 268 3.0 10.0 0.00 0.00 0.00 65 1016.2
20260506223006 69 216 3.0 11.0 0.00 0.00 0.00 66 1016.3
20260506221603 69 290 6.0 11.0 0.00 0.00 0.00 66 1016.4
20260506220105 70 279 4.0 10.0 0.00 0.00 0.00 65 1016.5
20260506214610 70 269 5.0 10.0 0.00 0.00 0.00 63 1016.6
20260506213055 70 237 4.0 10.0 0.00 0.00 0.00 64 1016.9
20260506211554 70 265 5.0 11.0 0.00 0.00 0.00 65 1016.9
20260506210053 70 270 6.0 13.0 0.00 0.00 0.00 66 1016.8
20260506204551 70 283 5.0 11.0 0.00 0.00 0.00 65 1016.9
20260506203051 70 260 6.0 13.0 0.00 0.00 0.00 64 1017.1
20260506201543 70 280 6.0 11.0 0.00 0.00 0.00 65 1017.1
20260506200040 70 236 7.0 14.0 0.00 0.00 0.00 63 1017.0
20260506194543 70 290 5.0 10.0 0.00 0.00 0.00 63 1017.5
20260506193034 69 243 3.0 10.0 0.00 0.00 0.00 63 1017.6
20260506191534 70 268 3.0 8.0 0.00 0.00 0.00 62 1017.7
20260506190025 68 272 3.0 6.0 0.00 0.00 0.00 62 1017.9
20260506184527 69 65 2.0 8.0 0.00 0.00 0.00 63 1018.1
20260506183017 68 289 1.0 9.0 0.00 0.00 0.00 64 1018.2
20260506181513 66 356 2.0 10.0 0.00 0.00 0.00 65 1018.4
20260506180015 65 270 2.0 9.0 0.00 0.00 0.00 65 1018.5
20260506174505 64 253 0.0 0.0 0.00 0.00 0.00 67 1018.5
20260506173002 63 345 0.0 0.0 0.00 0.00 0.00 68 1018.7
20260506171604 62 334 0.0 0.0 0.00 0.00 0.00 69 1018.9
20260506170057 61 274 0.0 0.0 0.00 0.00 0.00 72 1018.7
20260506164555 60 350 0.0 0.0 0.00 0.00 0.00 76 1018.7
20260506163048 59 244 0.0 0.0 0.00 0.00 0.00 77 1018.7
20260506161541 59 280 0.0 0.0 0.00 0.00 0.00 78 1018.6
20260506160037 58 360 0.0 0.0 0.00 0.00 0.00 81 1018.7
20260506154532 56 280 0.0 0.0 0.00 0.05 0.00 84 1018.6
20260506153029 55 229 0.0 0.0 0.00 0.05 0.00 85 1018.6
20260506151533 54 260 0.0 0.0 0.00 0.05 0.00 87 1018.6
20260506150024 54 259 0.0 0.0 0.00 0.05 0.00 87 1018.5
20260506144522 53 206 0.0 0.0 0.00 0.06 0.00 88 1018.6
20260506143020 53 206 0.0 0.0 0.00 0.06 0.00 89 1018.4
20260506141517 52 252 0.0 0.0 0.00 0.06 0.00 90 1018.3
20260506140021 51 260 0.0 0.0 0.00 0.06 0.00 90 1018.3
20260506134514 51 260 0.0 0.0 0.00 0.06 0.00 90 1018.1
20260506133016 51 260 0.0 0.0 0.00 0.06 0.00 90 1018.1
20260506131516 51 260 0.0 0.0 0.00 0.06 0.00 90 1017.9